Regional Weather Roundup
Issued by NWS

Home | Current Version | Previous Version | Graphics & Text | Print | Product List | Glossary On
Versions: 1 2 3 4 5 6 7 8 9 10 11 12 13 14 15 16 17 18 19 20 21 22 23 24 25 26 27 28 29 30 31 32 33 34 35 36 37 38 39 40 41 42 43 44 45 46 47 48 49 50
000
ASUS45 KCYS 281010
RWRWY

WYOMING REGIONAL WEATHER ROUNDUP
NATIONAL WEATHER SERVICE CHEYENNE WY
400 AM MDT TUE JUL 28 2015

NOTE:  "FAIR" INDICATES FEW OR NO CLOUDS BELOW 12,000 FEET
WITH NO SIGNIFICANT WEATHER AND/OR OBSTRUCTIONS TO VISIBILITY.

WYZ001-281100-
YELLOWSTONE NATIONAL PARK

CITY           SKY/WX    TMP DP  RH WIND       PRES   REMARKS
LK YELLOWSTONE   N/A     31  30  96 CALM      30.27R
W YELLOWSTONE  NOT AVBL

$$
WYZ002>013-054>058-071-098>099-281100-
NORTHERN WYOMING

CITY           SKY/WX    TMP DP  RH WIND       PRES   REMARKS
JACKSON        FAIR      34  34 100 NE6       30.26R WCI  29
CODY           FAIR      54  30  40 W14G29    30.07R
GREYBULL       FAIR      49  44  83 VRB5      30.04R
WORLAND        FAIR      45  41  86 NE6       30.05R
SHERIDAN       MOCLDY    47  44  90 SW7       29.99R
BUFFALO        FAIR      47  44  90 S12       30.03F
GILLETTE       FAIR      48  43  82 W9        30.02R
HULETT         FAIR      50  45  81 SW12G17   29.99S
NEWCASTLE      FAIR      48  43  81 NW7       30.04R

$$
WYZ014>020-022>026-101>103-281100-
CENTRAL WYOMING

CITY           SKY/WX    TMP DP  RH WIND       PRES   REMARKS
BIG PINEY      FAIR      32  24  72 N9        30.27F WCI  24
PINEDALE       FAIR      32  28  86 NW3       30.27S
DUBOIS         FAIR      37  30  75 NW10G16   30.20R WCI  30
LANDER         FAIR      46  28  49 SE10      30.12S
RIVERTON       FAIR      50  31  48 NW15      30.13R
CASPER         FAIR      51  29  42 SW14      30.09S
DOUGLAS        FAIR      47  40  76 CALM      30.08R

$$
WYZ021-027>030-104>119-281100-
SOUTHERN WYOMING

CITY           SKY/WX    TMP DP  RH WIND       PRES   REMARKS
EVANSTON       FAIR      47  32  56 S3        30.30S
KEMMERER       FAIR      41  23  48 S3        30.29S
FORT BRIDGER   SUNNY     43  28  56 W8        30.32S
ROCK SPRINGS   FAIR      49  24  37 W9        30.26R
DIXON          FAIR      42  33  71 CALM      30.29R
RAWLINS        FAIR      49  29  46 W9        30.23R
SARATOGA       FAIR      45  30  57 SW9       30.26S
LARAMIE        FAIR      49  27  42 W5        30.21R
CHEYENNE       FAIR      58  29  33 NW16G28   30.12R
TORRINGTON     FAIR      56  47  71 NW3       30.03R
PINE BLUFFS    FAIR      59  30  33 NW18G28   30.07R

$$



USA.gov is the U.S. government's official web portal to all federal, state and local government web resources and services.